User: anonymous   Login
Location: Prairie State College
(41.5244°N, 87.6382°W)
Time: 16:32:40
(UTC-06:00)
Language:

MSX - Orbit

View from above orbital plane
View from above orbital plane
View from above satellite
View from above satellite

Ground track
Ground track

The orbit data is extracted from the following two-line orbital elements,

1 23851U 96024A   16039.78938626 0.00000100  00000-0  70475-4 0    09
2 23851  98.6948  66.3513 0008004 265.6430  94.3569 13.98030976    09
Epoch (UTC): 08 February 2016 18:56:42
Eccentricity: 0.0008004
inclination: 98.6948°
perigee height: 895 km
apogee height: 906 km
right ascension of ascending node: 66.3513°
argument of perigee: 265.6430°
revolutions per day: 13.98030976
mean anomaly at epoch: 94.3569°
orbit number at epoch: 0

The dashed part of the orbit path shows where the satellite is in the earth's shadow,  

DLR